Location: Newark
(9.1167°S, 159.8667°E)
Time: 07:24:35
(UTC+00:00)

N. Korean satellite - Visible Passes

Search period start: 20 September 2019 00:00
Search period end: 30 September 2019 00:00
Orbit: 455 x 509 km, 97.2° (Epoch: 19 September)

Date Brightness Start Highest point End Pass type
(mag) Time Alt. Az. Time Alt. Az. Time Alt. Az.
22 Sep 8.1 18:31:52 10° NNE 18:35:09 40° ESE 18:38:31 10° S visible
23 Sep 10.0 07:49:14 10° SW 07:51:16 14° WSW 07:53:18 10° WNW visible
23 Sep 9.8 18:07:52 10° ENE 18:10:03 16° ESE 18:12:16 10° SE visible
26 Sep 8.8 18:24:31 10° NE 18:27:40 30° ESE 18:30:52 10° SSE visible
27 Sep 9.8 07:41:14 10° SSW 07:43:49 18° WSW 07:46:20 10° WNW visible
27 Sep 10.1 18:01:01 10° ENE 18:02:34 12° ESE 18:04:07 10° SE visible
29 Sep 7.1 18:41:46 10° NNE 18:45:16 64° E 18:48:53 10° S visible
